レモン彗星

C/2015 XY1 ( Lemmon )

English version
Home page
Updated on May 21, 2018

---------------------------------------------------------------------

・ プロフィール

発見日 2015年12月4日
発見光度 20.4等
発見者 J. A. Johnson (Mount Lemmon)

・ 写真集

・ 軌道要素

Epoch 2018 May 2.0 TT = JDT 2458240.5
T 2018 Apr. 29.90932 TT                                 MPCW
q   7.9279894            (2000.0)            P               Q
z  -0.0005231      Peri.  196.35143     +0.04277900     +0.86104977
 +/-0.0000009      Node   281.61656     +0.96478245     +0.09615565
e   1.0041470      Incl.  148.84773     +0.25954725     -0.49934696
From 400 observations 2015 Dec. 4-2018 Mar. 16, mean residual 0".5.

・ 光度変化

        m1 = -5.0 + 5 logΔ + 20.0 log r

---------------------------------------------------------------------

軌道要素はM.P.E.C. 2018-F152に掲載されたものです。
光度グラフはComet for Windowsで作成したものです。

---------------------------------------------------------------------

Copyright(C) Seiichi Yoshida (comet@aerith.net). All rights reserved.